HK4RAU-78 Weather Reports


Display with metric or nautical units.
time (UTC)temp
F
wind
direction
speed
MPH
gust
MPH
rain 1hr
in
rain 24hr
in
rain mn
in
humidity
%
barometer
mb
20260507113332 76 300 5.0 0.0 0.00 0.00 0.00 61 1013.0
20260507113029 76 300 5.0 0.0 0.00 0.00 0.00 61 1013.0
20260507112723 76 300 5.0 0.0 0.00 0.00 0.00 61 1013.0
20260507112422 76 300 5.0 0.0 0.00 0.00 0.00 61 1013.0
20260507112115 76 300 5.0 0.0 0.00 0.00 0.00 61 1013.0
20260507111814 76 300 5.0 0.0 0.00 0.00 0.00 61 1013.0
20260507111507 76 300 5.0 0.0 0.00 0.00 0.00 61 1013.0
20260507111200 76 300 5.0 0.0 0.00 0.00 0.00 61 1013.0
20260507110853 76 300 5.0 0.0 0.00 0.00 0.00 61 1013.0
20260507110524 76 300 5.0 0.0 0.00 0.00 0.00 61 1013.0
20260507110222 80 250 6.0 0.0 0.00 0.00 0.00 57 1013.0
20260507105916 80 250 6.0 0.0 0.00 0.00 0.00 57 1013.0
20260507105609 80 250 6.0 0.0 0.00 0.00 0.00 57 1013.0
20260507105307 80 250 6.0 0.0 0.00 0.00 0.00 57 1013.0
20260507105000 80 250 6.0 0.0 0.00 0.00 0.00 57 1013.0
20260507104650 80 250 6.0 0.0 0.00 0.00 0.00 57 1013.0
20260507104339 80 250 6.0 0.0 0.00 0.00 0.00 57 1013.0
20260507104032 80 250 6.0 0.0 0.00 0.00 0.00 57 1013.0
20260507103720 80 250 6.0 0.0 0.00 0.00 0.00 57 1013.0
20260507103419 80 250 6.0 0.0 0.00 0.00 0.00 57 1013.0
20260507103112 80 250 6.0 0.0 0.00 0.00 0.00 57 1013.0
20260507102806 80 250 6.0 0.0 0.00 0.00 0.00 57 1013.0
20260507102459 80 250 6.0 0.0 0.00 0.00 0.00 57 1013.0
20260507102148 80 250 6.0 0.0 0.00 0.00 0.00 57 1013.0
20260507101841 80 250 6.0 0.0 0.00 0.00 0.00 57 1013.0
20260507101535 80 250 6.0 0.0 0.00 0.00 0.00 57 1013.0
20260507101228 80 250 6.0 0.0 0.00 0.00 0.00 57 1013.0
20260507100921 80 250 6.0 0.0 0.00 0.00 0.00 57 1013.0
20260507100620 78 0 3.0 0.0 0.00 0.00 0.00 61 1013.0
20260507100314 78 0 3.0 0.0 0.00 0.00 0.00 61 1013.0
20260507100002 78 0 3.0 0.0 0.00 0.00 0.00 61 1013.0
20260507095700 78 0 3.0 0.0 0.00 0.00 0.00 61 1013.0
20260507095049 78 0 3.0 0.0 0.00 0.00 0.00 61 1013.0
20260507094742 78 0 3.0 0.0 0.00 0.00 0.00 61 1013.0
20260507094436 78 0 3.0 0.0 0.00 0.00 0.00 61 1013.0
20260507094129 78 0 3.0 0.0 0.00 0.00 0.00 61 1013.0
20260507093828 78 0 3.0 0.0 0.00 0.00 0.00 61 1013.0
20260507093521 78 0 3.0 0.0 0.00 0.00 0.00 61 1013.0
20260507093213 78 0 3.0 0.0 0.00 0.00 0.00 61 1013.0
20260507092907 78 0 3.0 0.0 0.00 0.00 0.00 61 1013.0
20260507092559 78 0 3.0 0.0 0.00 0.00 0.00 61 1013.0
20260507092244 78 0 3.0 0.0 0.00 0.00 0.00 61 1013.0
20260507091938 78 0 3.0 0.0 0.00 0.00 0.00 61 1013.0
20260507091626 78 0 3.0 0.0 0.00 0.00 0.00 61 1013.0
20260507091325 78 0 3.0 0.0 0.00 0.00 0.00 61 1013.0
20260507091019 78 0 3.0 0.0 0.00 0.00 0.00 61 1013.0
20260507090712 78 0 3.0 0.0 0.00 0.00 0.00 61 1013.0
20260507090409 78 200 11.0 0.0 0.00 0.00 0.00 61 1013.0
20260507090105 78 200 11.0 0.0 0.00 0.00 0.00 61 1013.0
20260507085758 78 200 11.0 0.0 0.00 0.00 0.00 61 1013.0
20260507085457 78 200 11.0 0.0 0.00 0.00 0.00 61 1013.0
20260507085156 78 200 11.0 0.0 0.00 0.00 0.00 61 1013.0
20260507084849 78 200 11.0 0.0 0.00 0.00 0.00 61 1013.0
20260507084548 78 200 11.0 0.0 0.00 0.00 0.00 61 1013.0
20260507084246 78 200 11.0 0.0 0.00 0.00 0.00 61 1013.0
20260507083939 78 200 11.0 0.0 0.00 0.00 0.00 61 1013.0
20260507083638 78 200 11.0 0.0 0.00 0.00 0.00 61 1013.0
20260507083332 78 200 11.0 0.0 0.00 0.00 0.00 61 1013.0
20260507083020 78 200 11.0 0.0 0.00 0.00 0.00 61 1013.0
20260507082713 78 200 11.0 0.0 0.00 0.00 0.00 61 1013.0
20260507082402 78 200 11.0 0.0 0.00 0.00 0.00 61 1013.0
20260507082056 78 200 11.0 0.0 0.00 0.00 0.00 61 1013.0
20260507081748 78 200 11.0 0.0 0.00 0.00 0.00 61 1013.0
20260507081447 78 200 11.0 0.0 0.00 0.00 0.00 61 1013.0
20260507081143 78 200 11.0 0.0 0.00 0.00 0.00 61 1013.0
20260507080837 82 190 16.0 0.0 0.00 0.00 0.00 57 1013.0
20260507080530 78 200 11.0 0.0 0.00 0.00 0.00 61 1013.0
20260507080224 82 190 16.0 0.0 0.00 0.00 0.00 57 1013.0
20260507075917 82 190 16.0 0.0 0.00 0.00 0.00 57 1013.0
20260507075616 82 190 16.0 0.0 0.00 0.00 0.00 57 1013.0
20260507075310 82 190 16.0 0.0 0.00 0.00 0.00 57 1013.0
20260507075003 82 190 16.0 0.0 0.00 0.00 0.00 57 1013.0
20260507074652 82 190 16.0 0.0 0.00 0.00 0.00 57 1013.0
20260507074351 82 190 16.0 0.0 0.00 0.00 0.00 57 1013.0
20260507074049 82 190 16.0 0.0 0.00 0.00 0.00 57 1013.0
20260507073743 82 190 16.0 0.0 0.00 0.00 0.00 57 1013.0
20260507073436 82 190 16.0 0.0 0.00 0.00 0.00 57 1013.0
20260507073130 82 190 16.0 0.0 0.00 0.00 0.00 57 1013.0
20260507072823 82 190 16.0 0.0 0.00 0.00 0.00 57 1013.0
20260507072517 82 190 16.0 0.0 0.00 0.00 0.00 57 1013.0
20260507072210 82 190 16.0 0.0 0.00 0.00 0.00 57 1013.0
20260507071909 82 190 16.0 0.0 0.00 0.00 0.00 57 1013.0
20260507071603 82 190 16.0 0.0 0.00 0.00 0.00 57 1013.0
20260507071302 82 190 16.0 0.0 0.00 0.00 0.00 57 1013.0
20260507070955 82 190 16.0 0.0 0.00 0.00 0.00 57 1013.0
20260507070648 82 190 16.0 0.0 0.00 0.00 0.00 57 1013.0
20260507070347 82 190 16.0 0.0 0.00 0.00 0.00 57 1013.0
20260507070040 82 190 16.0 0.0 0.00 0.00 0.00 57 1013.0
20260507065733 82 190 16.0 0.0 0.00 0.00 0.00 57 1013.0
20260507065427 82 190 16.0 0.0 0.00 0.00 0.00 57 1013.0
20260507065115 82 190 16.0 0.0 0.00 0.00 0.00 57 1013.0
20260507064804 82 190 16.0 0.0 0.00 0.00 0.00 57 1013.0
20260507064457 82 190 16.0 0.0 0.00 0.00 0.00 57 1013.0
20260507064150 82 190 16.0 0.0 0.00 0.00 0.00 57 1013.0
20260507063843 82 190 16.0 0.0 0.00 0.00 0.00 57 1013.0
20260507063532 82 190 16.0 0.0 0.00 0.00 0.00 57 1013.0
20260507063225 82 190 16.0 0.0 0.00 0.00 0.00 57 1013.0
20260507062917 82 190 16.0 0.0 0.00 0.00 0.00 57 1013.0
20260507062611 82 190 16.0 0.0 0.00 0.00 0.00 57 1013.0
20260507062306 82 190 16.0 0.0 0.00 0.00 0.00 57 1013.0
20260507061957 82 190 16.0 0.0 0.00 0.00 0.00 57 1013.0
20260507061651 82 190 16.0 0.0 0.00 0.00 0.00 57 1013.0
20260507061344 82 190 16.0 0.0 0.00 0.00 0.00 57 1013.0
20260507061038 84 190 17.0 0.0 0.00 0.00 0.00 54 1013.0
20260507060732 84 190 17.0 0.0 0.00 0.00 0.00 54 1013.0
20260507060126 84 190 17.0 0.0 0.00 0.00 0.00 54 1013.0
20260507055824 84 190 17.0 0.0 0.00 0.00 0.00 54 1013.0
20260507055518 84 190 17.0 0.0 0.00 0.00 0.00 54 1013.0
20260507055216 84 190 17.0 0.0 0.00 0.00 0.00 54 1013.0
20260507054910 84 190 17.0 0.0 0.00 0.00 0.00 54 1013.0
20260507054603 84 190 17.0 0.0 0.00 0.00 0.00 54 1013.0
20260507054256 84 190 17.0 0.0 0.00 0.00 0.00 54 1013.0
20260507053949 84 190 17.0 0.0 0.00 0.00 0.00 54 1013.0
20260507053647 84 190 17.0 0.0 0.00 0.00 0.00 54 1013.0
20260507053341 84 190 17.0 0.0 0.00 0.00 0.00 54 1014.0
20260507052413 84 190 17.0 0.0 0.00 0.00 0.00 54 1014.0
20260507052107 84 190 17.0 0.0 0.00 0.00 0.00 54 1014.0
20260507051805 84 190 17.0 0.0 0.00 0.00 0.00 54 1014.0
20260507051459 84 190 17.0 0.0 0.00 0.00 0.00 54 1014.0
20260507050510 84 200 10.0 0.0 0.00 0.00 0.00 51 1014.0
20260507050200 84 200 10.0 0.0 0.00 0.00 0.00 51 1014.0
20260507045826 84 200 10.0 0.0 0.00 0.00 0.00 51 1014.0
20260507045519 84 200 10.0 0.0 0.00 0.00 0.00 51 1014.0
20260507044552 84 200 10.0 0.0 0.00 0.00 0.00 51 1014.0
20260507044251 84 200 10.0 0.0 0.00 0.00 0.00 51 1014.0
20260507043944 84 200 10.0 0.0 0.00 0.00 0.00 51 1014.0
20260507043637 84 200 10.0 0.0 0.00 0.00 0.00 51 1014.0
20260507043331 84 200 10.0 0.0 0.00 0.00 0.00 51 1014.0
20260507043024 84 200 10.0 0.0 0.00 0.00 0.00 51 1014.0
20260507042718 84 200 10.0 0.0 0.00 0.00 0.00 51 1014.0
20260507042411 84 200 10.0 0.0 0.00 0.00 0.00 51 1014.0
20260507042105 84 200 10.0 0.0 0.00 0.00 0.00 51 1014.0
20260507041804 84 200 10.0 0.0 0.00 0.00 0.00 51 1014.0
20260507041457 84 200 10.0 0.0 0.00 0.00 0.00 48 1014.0
20260507041151 84 200 10.0 0.0 0.00 0.00 0.00 51 1014.0
20260507040844 84 200 10.0 0.0 0.00 0.00 0.00 48 1014.0
20260507040538 84 200 10.0 0.0 0.00 0.00 0.00 48 1014.0
20260507040236 84 200 10.0 0.0 0.00 0.00 0.00 48 1014.0
20260507035934 84 200 10.0 0.0 0.00 0.00 0.00 48 1014.0
20260507035632 84 200 10.0 0.0 0.00 0.00 0.00 48 1014.0
20260507035321 84 200 10.0 0.0 0.00 0.00 0.00 48 1014.0
20260507035020 84 200 10.0 0.0 0.00 0.00 0.00 48 1014.0
20260507034713 84 200 10.0 0.0 0.00 0.00 0.00 48 1014.0
20260507034407 84 200 10.0 0.0 0.00 0.00 0.00 48 1014.0
20260507034104 84 200 10.0 0.0 0.00 0.00 0.00 48 1014.0
20260507033803 84 200 10.0 0.0 0.00 0.00 0.00 48 1014.0
20260507033456 84 200 10.0 0.0 0.00 0.00 0.00 48 1014.0
20260507033149 84 200 10.0 0.0 0.00 0.00 0.00 48 1014.0
20260507032843 84 200 10.0 0.0 0.00 0.00 0.00 48 1014.0
20260507032534 84 200 10.0 0.0 0.00 0.00 0.00 48 1014.0
20260507032232 84 200 10.0 0.0 0.00 0.00 0.00 48 1014.0
20260507031624 84 200 10.0 0.0 0.00 0.00 0.00 48 1014.0
20260507031322 84 200 10.0 0.0 0.00 0.00 0.00 48 1014.0
20260507031020 84 200 10.0 0.0 0.00 0.00 0.00 48 1014.0
20260507030719 84 200 10.0 0.0 0.00 0.00 0.00 48 1014.0
20260507030417 85 210 5.0 0.0 0.00 0.00 0.00 51 1014.0
20260507030111 85 210 5.0 0.0 0.00 0.00 0.00 51 1014.0
20260507025810 85 210 5.0 0.0 0.00 0.00 0.00 51 1014.0
20260507025503 85 210 5.0 0.0 0.00 0.00 0.00 51 1014.0
20260507025202 85 210 5.0 0.0 0.00 0.00 0.00 51 1014.0
20260507024850 85 210 5.0 0.0 0.00 0.00 0.00 51 1014.0
20260507024549 85 210 5.0 0.0 0.00 0.00 0.00 51 1014.0
20260507024247 85 210 5.0 0.0 0.00 0.00 0.00 51 1014.0
20260507023940 85 210 5.0 0.0 0.00 0.00 0.00 51 1014.0
20260507023639 85 210 5.0 0.0 0.00 0.00 0.00 51 1014.0
20260507023336 85 210 5.0 0.0 0.00 0.00 0.00 51 1014.0